OBJECT C, 100782

Orbit data source: Space-Track

You're viewing an uncataloged RSO

Recently launched and/or uncataloged RSOs may have evolving metadata. Metadata may include the following, but is not limited to: Owner, Manufacturer, Bus, Motor, and Mission.

OBJECT C, 100782 is a Chinese satellite in SSO that was launched on Mon, 21 Sep 2026 UTC launched from the Jiuquan Satellite Launch Center, China (JSC). Unknown objects in Earth's orbit typically refer to objects detected orbiting the Earth but have not yet been identified or cataloged. These objects could be anything from previously untracked satellites, spent rocket stages, debris from satellite collisions, or even natural meteoroids temporarily captured by Earth's gravity.

Loading next visibility...
Identifier
100782, 2026-220C
Orbit
SSO
Country
Flag of CNCN / PRC
Related business
None
Manufacturer
Unknown
Mission
Operational spacecraft
Bus & Motor
Unknown
Mass
Unknown
Launch date (UTC)
Icon of a cake. It is the launch day of the satellite!2026-09-21 (11 hours ago)
Launch vehicle
Unknown
Launch site
Jiuquan Satellite Launch Center, China (JSC)
Object type
Unknown
Shape & HBR
Unknown
Radar Cross Section
RCS unknown

Expand to show TLE details & history
Last TLE update: 1 day ago

TLE from 1 day ago
0 OBJECT C
1 A0782U 26220C   26263.67635400  .00000484  00000-0  33062-4 0  9993
2 A0782  97.5450 337.1416 0014569 276.0761  83.8809 15.10704703    80
Epoch: 2026-09-20T16:13Z
TLE epoch observation values (Epoch: 2026-09-20T16:13:56.985Z)
Latitude
0.00002°
Longitude
94.08704°
Altitude
536.064 km
Speed
7.595 km/s
True Right ascension
22h 28m 33s
True Declination
0° 00' 00"
Sunlit
Object was in full shadow at epoch
Visualization orbit readout
Latitude
Unknown
Longitude
Unknown
Altitude
Unknown
Speed
Unknown
Apparent Right ascension
Unknown
Apparent Declination
Unknown
Sunlit
N/A
Visualization observer readout
Local Sidereal Time
15:37:07
Azimuth
Unknown
Elevation
Unknown
Doppler factor
Unknown
Orbital elements
Apogee altitude
541.1 km
Perigee altitude
520.968 km
Semi-major axis
6,909.171 km
Eccentricity
0.00146
Inclination
97.545°
RAAN
337.1416°
Arg. of periapsis
276.0761°
True anomaly
84.04693°
Mean anomaly
83.8809°
Eccentric anomaly
83.96391°
Mean motion
3.77924 °/min
Orbital period
95.26 mins
BSTAR
0.000033062
Loading maneuver chart data...
Computing Atmospheric mass density...
Loading historical data...
Loading historical data...
Loading historical data...
Loading historical data...
Loading historical data...
Loading historical data...
Loading historical data...

Documentation

Showing up to 5 results
|